[[{"header":{"parameterUnit":"m.s-1","parameterCategory":1,"la1":30.2991,"la2":30.254,"lo1":-89.0895,"lo2":-89.0444,"dy":0.0017,"dx":0.0017,"nx":28,"ny":28,"refTime":"2025-11-11T03:00:00:Z","depth":0,"parameterNumber":2,"parameterNumberName":"U-component_of_WINDS"},"data":[0,0,0,0,0,0,0,0,0,0,0,0,0,0,0,0,0,0,0,0,0,0,0,0,0,0,0,0,0,0,0,0,0,0,0,0,0,0,0,0,0,0,0,0,0,0,0,0,0,0,0,0,0,0,0,0,0,0,-3.5796,-3.5797,0,-3.5874,-3.5874,-3.5875,-3.5796,-3.5792,-3.5789,-3.5786,-3.5862,-3.5867,-3.5872,0,0,0,0,0,0,0,0,0,0,0,0,0,-3.5574,-3.5579,-3.5796,-3.5797,-3.5798,-3.5873,-3.5874,-3.5875,-3.5796,-3.5792,-3.5789,-3.5785,-3.586,-3.5866,-3.5872,0,0,0,0,0,0,0,0,0,0,0,0,0,-3.5663,-3.558,-3.5796,-3.5768,-3.5766,-3.5873,-3.5874,-3.5876,-3.5797,-3.5792,-3.5788,-3.5783,-3.5858,-3.5866,-3.5873,-3.6011,0,0,-3.5895,-3.5898,0,0,0,0,0,0,0,0,-3.5658,-3.5671,-3.5771,-3.577,-3.5768,-3.582,-3.5824,-3.5921,-3.5798,-3.5785,-3.5786,-3.5781,-3.5852,-3.5859,-3.5884,-3.6014,-3.6017,-3.5896,-3.59,-3.5903,-3.5906,0,0,0,0,0,0,0,-3.5652,-3.5667,-3.5827,-3.5772,-3.5771,-3.5749,-3.5757,-3.5842,-3.5843,-3.5786,-3.578,-3.5791,-3.585,-3.5877,-3.5885,-3.6019,-3.5896,-3.5902,-3.5907,-3.591,-3.6262,-3.6266,0,0,0,0,0,0,-3.565,-3.5663,-3.5824,-3.5829,-3.5701,-3.5757,-3.5765,-3.5808,-3.5842,-3.5843,-3.5795,-3.5787,-3.5867,-3.5876,-3.5887,-3.6047,-3.5903,-3.591,-3.5914,-3.6257,-3.6263,-3.6268,0,0,0,0,0,0,-3.5645,-3.5665,-3.5821,-3.5744,-3.5763,-3.5766,-3.5814,-3.5812,-3.5839,-3.5849,-3.5848,-3.5822,-3.5863,-3.5877,-3.598,-3.6049,-3.5914,-3.592,-3.6251,-3.6258,-3.6265,-3.6371,0,0,0,0,0,0,-3.5639,-3.5664,-3.5718,-3.5746,-3.5767,-3.5914,-3.5819,-3.5817,-3.5852,-3.5843,-3.5874,-3.5875,-3.5861,-3.5969,-3.5987,-3.6056,-3.5926,-3.6245,-3.6254,-3.6263,-3.6361,-3.6381,-3.6398,0,0,0,0,0,-3.5632,-3.5744,-3.5721,-3.5741,-3.5835,-3.5918,-3.593,-3.5912,-3.5858,-3.5911,-3.5917,-3.5874,-3.604,-3.5981,-3.6,-3.6073,-3.624,-3.6251,-3.6262,-3.6353,-3.6377,-3.6397,0,0,0,0,0,0,-3.5723,-3.5747,-3.5722,-3.5847,-3.5881,-3.5905,-3.5971,-3.5939,-3.5988,-3.5977,-3.5952,-3.5959,-3.6068,-3.6081,-3.6015,-3.6206,-3.613,-3.6146,-3.6193,-3.6216,-3.6234,-3.6227,-3.5932,0,0,0,0,0,-3.5758,-3.5825,-3.5843,-3.5952,-3.597,-3.5968,-3.6004,-3.5987,-3.6021,-3.6034,-3.6048,-3.6081,-3.614,-3.6179,-3.6234,-3.6364,-3.6367,-3.6423,-3.6441,-3.6456,-3.6469,-3.6534,-3.6558,-3.6305,-3.6305,-3.6304,0,0,-3.583,-3.5852,-3.5896,-3.597,-3.5995,-3.6063,-3.5981,-3.6057,-3.6106,-3.6046,-3.6142,-3.6154,-3.6189,-3.6305,-3.6357,-3.6319,-3.654,-3.6471,-3.6483,-3.6487,-3.6548,-3.6572,-3.6593,-3.6312,-3.6311,-3.631,0,0,-3.5995,-3.6021,-3.6112,-3.6138,-3.6176,-3.6174,-3.6196,-3.6225,-3.623,-3.6327,-3.6282,-3.634,-3.6443,-3.6469,-3.6496,-3.667,-3.663,-3.6689,-3.6783,-3.6847,-3.6867,-3.6884,-3.6942,-3.6964,-3.6702,-3.6702,-3.6702,0,-3.6079,-3.6182,-3.6163,-3.6242,-3.6274,-3.6224,-3.6315,-3.6341,-3.6395,-3.6417,-3.6376,-3.6502,-3.6522,-3.6641,-3.6683,-3.6708,-3.673,-3.6683,-3.6866,-3.6883,-3.6899,-3.6954,-3.6976,-3.6708,-3.6708,-3.6707,-3.6706,0,-3.6281,-3.6353,-3.6422,-3.6475,-3.6516,-3.6601,-3.6593,-3.6636,-3.6616,-3.6617,-3.6715,-3.6738,-3.6795,-3.6823,-3.6805,-3.6939,-3.6914,-3.687,-3.6793,-3.693,-3.6981,-3.7002,-3.6718,-3.6715,-3.6713,-3.6712,0,0,-3.6504,-3.6546,-3.6571,-3.6593,-3.6632,-3.6685,-3.6767,-3.6823,-3.6859,-3.6898,-3.6963,-3.7051,-3.701,-3.704,-3.7024,-3.7081,-3.7211,-3.7028,-3.7029,-3.7058,-3.7356,-3.7386,-3.7411,-3.7188,-3.7192,-3.7195,-3.7352,0,-3.6667,-3.6809,-3.6794,-3.6928,-3.6991,-3.6944,-3.7014,-3.7044,-3.7048,-3.7101,-3.7104,-3.7165,-3.7108,-3.7125,-3.718,-3.7184,-3.727,-3.7173,-3.7244,-3.7247,-3.7232,-3.7438,-3.7471,-3.7617,-3.7372,-3.7375,-3.7378,0,-3.6876,-3.6922,-3.7063,-3.7088,-3.7114,-3.7178,-3.7227,-3.728,-3.7311,-3.7309,-3.7343,-3.7316,-3.7395,-3.732,-3.7426,-3.736,-3.7388,-3.7395,-3.74,-3.7403,-3.7318,-3.7442,-3.7664,-3.7685,-3.741,-3.7407,-3.7405,0,-3.7019,-3.7117,-3.7212,-3.7233,-3.7267,-3.7312,-3.7328,-3.7355,-3.7389,-3.7432,-3.7453,-3.7505,-3.7532,-3.7572,-3.7559,-3.7506,-3.7666,-3.7591,-3.7664,-3.7664,-3.7696,-3.7693,-3.7922,-3.7722,-3.7722,-3.7722,-3.7721,0,-3.72,-3.7286,-3.7276,-3.7335,-3.7429,-3.7411,-3.7505,-3.7514,-3.7539,-3.7596,-3.756,-3.7614,-3.7596,-3.7649,-3.764,-3.7726,-3.774,-3.7738,-3.7734,-3.7739,-3.7739,-3.7754,-3.7742,-3.7727,-3.7726,-3.7725,-3.7724,0,-3.7374,-3.7372,-3.7472,-3.7495,-3.7503,-3.7572,-3.759,-3.7644,-3.7645,-3.7718,-3.7734,-3.7735,-3.7795,-3.7787,-3.7854,-3.7847,-3.7954,-3.794,-3.7943,-3.7938,-3.801,-3.8001,-3.8252,-3.8282,-3.8068,-3.807,-3.8072,0,-3.7488,-3.7553,-3.7584,-3.762,-3.7639,-3.7698,-3.7732,-3.7717,-3.7754,-3.7794,-3.7842,-3.7899,-3.7943,-3.8041,-3.8046,-3.8096,-3.808,-3.8165,-3.8087,-3.8089,-3.8075,-3.807,-3.8074,-3.8178,-3.8181,-3.8183,-3.8184,0,-3.7688,-3.7683,-3.7735,-3.7786,-3.7828,-3.7867,-3.7902,-3.7934,-3.7921,-3.7964,-3.8025,-3.806,-3.8128,-3.8183,-3.823,-3.8244,-3.8211,-3.821,-3.8228,-3.8232,-3.8229,-3.8227,-3.798,-3.8203,-3.8201,-3.82,-3.8199,-3.8198,-3.7832,-3.7886,-3.7916,-3.7973,-3.7999,-3.8032,-3.8082,-3.809,-3.8141,-3.8195,-3.8183,-3.8251,-3.8278,-3.8338,-3.8357,-3.8409,-3.8377,-3.8406,-3.8412,-3.8418,-3.8424,-3.8225,-3.8418,-3.8417,-3.8417,-3.8416,-3.8416,0,-3.8026,-3.8043,-3.8096,-3.8146,-3.8191,-3.8159,-3.8196,-3.8235,-3.8295,-3.8325,-3.8369,-3.8438,-3.8491,-3.8501,-3.8551,-3.859,-3.8576,-3.8603,-3.8598,-3.8601,-3.8452,-3.8428,-3.8614,-3.8613,-3.8613,-3.8613,-3.8613,-3.8613,-3.8132,-3.8221,-3.8219,-3.8319,-3.8335,-3.8402,-3.8425,-3.8454,-3.8477,-3.8556,-3.86,-3.8607,-3.8627,-3.8678,-3.8725,-3.8726,-3.8744,-3.8777,-3.8772,-3.8632,-3.8612,-3.8593,-3.857,-3.8782,-3.8782,-3.8915,-3.8917,-3.8918]},{"header":{"parameterUnit":"m.s-1","parameterCategory":1,"la1":30.2991,"la2":30.254,"lo1":-89.0895,"lo2":-89.0444,"dy":0.0017,"dx":0.0017,"nx":28,"ny":28,"refTime":"2025-11-11T03:00:00:Z","depth":0,"parameterNumber":3,"parameterNumberName":"V-component_of_WINDS"},"data":[0,0,0,0,0,0,0,0,0,0,0,0,0,0,0,0,0,0,0,0,0,0,0,0,0,0,0,0,0,0,0,0,0,0,0,0,0,0,0,0,0,0,0,0,0,0,0,0,0,0,0,0,0,0,0,0,0,0,-3.8129,-3.813,0,-3.8203,-3.8204,-3.8205,-3.8147,-3.8145,-3.8142,-3.814,-3.8215,-3.8219,-3.8223,0,0,0,0,0,0,0,0,0,0,0,0,0,-3.7933,-3.7937,-3.8129,-3.813,-3.8131,-3.8203,-3.8204,-3.8205,-3.8147,-3.8144,-3.8141,-3.8139,-3.8213,-3.8218,-3.8223,0,0,0,0,0,0,0,0,0,0,0,0,0,-3.8014,-3.7938,-3.8129,-3.8111,-3.811,-3.8203,-3.8204,-3.8206,-3.8148,-3.8144,-3.8141,-3.8137,-3.8211,-3.8218,-3.8224,-3.8339,0,0,-3.8244,-3.8247,0,0,0,0,0,0,0,0,-3.801,-3.8021,-3.8112,-3.8112,-3.8111,-3.8162,-3.8163,-3.825,-3.8149,-3.8134,-3.814,-3.8135,-3.82,-3.8207,-3.8229,-3.8342,-3.8345,-3.8244,-3.8248,-3.8251,-3.8253,0,0,0,0,0,0,0,-3.8004,-3.8018,-3.8158,-3.8114,-3.8113,-3.8098,-3.8105,-3.8179,-3.8187,-3.8135,-3.8131,-3.814,-3.8199,-3.8223,-3.8231,-3.8347,-3.8244,-3.825,-3.8254,-3.8257,-3.8555,-3.8559,0,0,0,0,0,0,-3.8,-3.8013,-3.8156,-3.8161,-3.805,-3.8104,-3.8113,-3.815,-3.8186,-3.8188,-3.8143,-3.8137,-3.8214,-3.8223,-3.8233,-3.8368,-3.8251,-3.8257,-3.8261,-3.8551,-3.8556,-3.856,0,0,0,0,0,0,-3.7997,-3.8014,-3.8153,-3.8086,-3.8102,-3.8112,-3.8154,-3.8153,-3.8177,-3.8192,-3.8193,-3.8167,-3.8211,-3.8224,-3.8312,-3.837,-3.826,-3.8266,-3.8546,-3.8552,-3.8558,-3.864,0,0,0,0,0,0,-3.7991,-3.8013,-3.8057,-3.8087,-3.8106,-3.8232,-3.8157,-3.8157,-3.8189,-3.8181,-3.8215,-3.8217,-3.8209,-3.8303,-3.8319,-3.8377,-3.8271,-3.8541,-3.8549,-3.8556,-3.8632,-3.8648,-3.8662,0,0,0,0,0,-3.7984,-3.8078,-3.806,-3.8077,-3.8162,-3.8236,-3.8246,-3.8237,-3.8194,-3.8238,-3.8247,-3.8216,-3.8361,-3.8313,-3.833,-3.8391,-3.8537,-3.8547,-3.8555,-3.8626,-3.8645,-3.8662,0,0,0,0,0,0,-3.8054,-3.8081,-3.8062,-3.8168,-3.82,-3.8226,-3.8281,-3.8258,-3.8303,-3.8294,-3.8279,-3.8287,-3.838,-3.8394,-3.834,-3.8502,-3.8442,-3.8455,-3.849,-3.8508,-3.8523,-3.8517,-3.8276,0,0,0,0,0,-3.8082,-3.814,-3.816,-3.8252,-3.8269,-3.8273,-3.8304,-3.8294,-3.8326,-3.8339,-3.8355,-3.8387,-3.844,-3.8475,-3.8524,-3.8634,-3.864,-3.8684,-3.8699,-3.8711,-3.8722,-3.8779,-3.8799,-3.859,-3.859,-3.859,0,0,-3.814,-3.8162,-3.8199,-3.8266,-3.829,-3.8349,-3.8284,-3.835,-3.8394,-3.8349,-3.8433,-3.8446,-3.8481,-3.858,-3.8624,-3.8595,-3.8781,-3.8723,-3.8732,-3.8737,-3.8791,-3.881,-3.8828,-3.8596,-3.8595,-3.8594,0,0,-3.8275,-3.8298,-3.8376,-3.8401,-3.8437,-3.8439,-3.8457,-3.8487,-3.8493,-3.8578,-3.8545,-3.8596,-3.8688,-3.8713,-3.8738,-3.8881,-3.8853,-3.8898,-3.8975,-3.903,-3.9047,-3.9061,-3.9111,-3.9129,-3.8909,-3.8909,-3.8909,0,-3.8342,-3.8431,-3.8419,-3.8487,-3.8516,-3.8479,-3.8556,-3.8581,-3.8632,-3.8652,-3.8618,-3.8731,-3.8752,-3.8856,-3.889,-3.8912,-3.8932,-3.8893,-3.9046,-3.906,-3.9073,-3.912,-3.9139,-3.8914,-3.8913,-3.8913,-3.8912,0,-3.851,-3.8572,-3.8631,-3.868,-3.8717,-3.8789,-3.8787,-3.8825,-3.8811,-3.8816,-3.8901,-3.8924,-3.8977,-3.9001,-3.8988,-3.9102,-3.9083,-3.9048,-3.8987,-3.9099,-3.9142,-3.9161,-3.8921,-3.8919,-3.8918,-3.8917,0,0,-3.8692,-3.8733,-3.8755,-3.8776,-3.8813,-3.886,-3.893,-3.8982,-3.9014,-3.905,-3.9107,-3.9184,-3.9152,-3.918,-3.917,-3.9219,-3.9329,-3.9177,-3.9178,-3.9203,-3.9454,-3.9479,-3.9501,-3.931,-3.9314,-3.9317,-3.945,0,-3.8828,-3.8951,-3.8941,-3.9056,-3.9112,-3.9077,-3.9137,-3.9166,-3.9172,-3.9219,-3.9225,-3.928,-3.9233,-3.925,-3.9297,-3.9305,-3.9378,-3.9296,-3.9362,-3.9365,-3.9354,-3.9524,-3.9551,-3.9677,-3.9468,-3.9471,-3.9473,0,-3.9004,-3.9045,-3.9166,-3.9192,-3.9215,-3.927,-3.9316,-3.9362,-3.9393,-3.9393,-3.9425,-3.9405,-3.9474,-3.9412,-3.9506,-3.945,-3.9477,-3.9485,-3.9489,-3.9495,-3.9425,-3.9532,-3.9717,-3.9735,-3.95,-3.9498,-3.9496,0,-3.9122,-3.9208,-3.9291,-3.9311,-3.9344,-3.9383,-3.9399,-3.9426,-3.9457,-3.9496,-3.9516,-3.9563,-3.9589,-3.9625,-3.9619,-3.9574,-3.9714,-3.9652,-3.9716,-3.9716,-3.9746,-3.9744,-3.9936,-3.9765,-3.9765,-3.9765,-3.9764,0,-3.9274,-3.9349,-3.9345,-3.9396,-3.9478,-3.9466,-3.9547,-3.9558,-3.9582,-3.9633,-3.9605,-3.9654,-3.9643,-3.9691,-3.9686,-3.9764,-3.9776,-3.9778,-3.9775,-3.978,-3.978,-3.9797,-3.9787,-3.977,-3.9769,-3.9768,-3.9767,0,-3.9421,-3.9421,-3.9509,-3.9533,-3.954,-3.96,-3.962,-3.9667,-3.967,-3.9736,-3.975,-3.9755,-3.981,-3.9807,-3.987,-3.9866,-3.9962,-3.995,-3.9951,-3.9948,-4.0012,-4.0006,-4.0221,-4.0248,-4.006,-4.0062,-4.0064,0,-3.9518,-3.9574,-3.9604,-3.9637,-3.9655,-3.9708,-3.9739,-3.9728,-3.9762,-3.98,-3.9843,-3.9895,-3.9936,-4.0026,-4.0034,-4.0081,-4.0069,-4.0141,-4.0076,-4.0078,-4.0069,-4.0065,-4.007,-4.0154,-4.0156,-4.0158,-4.0159,0,-3.9689,-3.9686,-3.9732,-3.9778,-3.9816,-3.9852,-3.9885,-3.9913,-3.9906,-3.9944,-4.0,-4.0032,-4.0095,-4.0147,-4.0192,-4.0207,-4.0182,-4.018,-4.0197,-4.0202,-4.02,-4.02,-3.9985,-4.0175,-4.0173,-4.0172,-4.0171,-4.0171,-3.9812,-3.986,-3.9888,-3.9941,-3.9964,-3.9995,-4.004,-4.0048,-4.0095,-4.0146,-4.0136,-4.0199,-4.0226,-4.0283,-4.0302,-4.035,-4.0324,-4.0349,-4.0356,-4.0362,-4.0368,-4.0193,-4.0358,-4.0358,-4.0358,-4.0357,-4.0357,0,-3.9981,-3.9997,-4.0045,-4.0091,-4.0132,-4.0105,-4.0139,-4.0175,-4.023,-4.0258,-4.0299,-4.0362,-4.0412,-4.0424,-4.0472,-4.0507,-4.0497,-4.052,-4.0517,-4.0521,-4.0389,-4.0369,-4.0528,-4.0528,-4.0528,-4.0528,-4.0528,-4.0527,-4.0073,-4.0153,-4.0153,-4.0242,-4.0257,-4.0318,-4.034,-4.0368,-4.039,-4.0462,-4.0503,-4.0511,-4.0532,-4.058,-4.0624,-4.0626,-4.0645,-4.0672,-4.067,-4.0547,-4.053,-4.0514,-4.0495,-4.0677,-4.0677,-4.0797,-4.0798,-4.0799]}]]